SITRO-AIS 26

Last updated on Mon Sep 21 2026 00:03:45 GMT+0000 (Coordinated Universal Time)

1 59067U 24039S 26263.58123213 .00002526 00000+0 19694-3 0 9995 2 59067 95.3816 300.4921 0143327 355.8537 4.1489 14.93845269138959
UTC large
Height (km)
Speed (km/s)
/
Latitude / Longitude
Inclination (degrees)
Orbital Period (minutes)
Azimuth
Elevation
Range (km)
Doppler Factor

Next 0 passes for location: London (51.5072 / 0.1276)

No passes found over London.
SITRO-AIS 26